Погода Тарко-Сале

Хотите узнать прогноз погоды Тарко-Сале? Тогда Вам сюда: Погода Тарко-Сале

Поиск расширенной информации на нашем сайте:

Полезная информация:

Новости сайта



02.01.2020
Опубликован Долгосрочный прогноз погоды по городам России и ближнего зарубежья на январь 2020 года.
Карты: Прогноз на январь и февраль 2020 года, Сравнение прогнозируемой аномалии приземной температуры воздуха на январь 2020 года по разным моделям.




Погода Тарко-Сале - сегодня

Время (UTC), дата Ветер
(°,м/с) 
Видим.   Явления Облачность Т
(°С)
Тd
(°С)
f(%) Тe
(°С)
Pmin
(гПа)
dP
(гПа)
Po
(мм)
O2
(г/м3)
Тmin Tmax R s Состояние
почвы
12 14.04.21 300 (СЗ) 10 км    10/3 600 м средняя, верхняя 
[Sc|Ac As|Ci fib]
+2.4 -5.8 55 +2  1018.9  0.4  762  305           
03 15.04.21 210 (ЮЗ) 10 км    10/4 600 м кучево-дожд., средняя 
[Cb cap|Ac trans]
+4.1 +1 80 +3  997.5  -4.5  746  296  -0.3    0.6  47  равномерный
мокрый или
старый снег
100% 
06 15.04.21 260 (З) 10 км    10/3 600 м кучево-дожд., средняя 
[Cb cap|Ac trans]
+7.8 +1.1 63 +6  995.9  -1.5  745  291           
15 15.04.21 300 (СЗ) 3{12}  10 км  в посл. час ливневой снег  8/8 400 м кучево-дожд. 
[Cb cap]
-0.7 -2.7 86 -3  1004  751  303    +8     
21 15.04.21 330 (СЗ) 10 км  {ливн. осадки}  3/0 верхняя 
[Ci fib]
-11.3 -14.2 79 -15  1010.7  4.4  755  319           
00 16.04.21 330 (СЗ) 4{12}  10 км  позёмок{ливн. осадки}  ясно 
-17.2 -20.2 77 -22  1015.9  5.1  759  328           
03 16.04.21 310 (СЗ) 5{11}  10 км  позёмок  9/6 570 м кучево-дожд., средняя 
[Cb cap|Ac trans]
-17 -20.8 72 -23  1019.7  3.8  762  329  -17.7    0.0  43  равномерный
сухой снег
100% 
15 16.04.21 220 (ЮЗ) 10 км    3/3 600 м верхняя 
[Sc|Ci fib]
-11.5 -16.5 66 -11  1021  -1.7  763  322    -9.9  0.0     
03 17.04.21 270 (З) 5-11{13}  10 км  позёмок{ливн. осадки}  6/6 450 м 
[Cu hum]
-9 -13.6 69 -14  1010  0.6  755  316  -13    0.4  44  равномерный
сухой снег
100% 
12 17.04.21 310 (СЗ) 5-10{15}  10 км  позёмок{снег}  10/6 360 м средняя, верхняя 
[Sc|Ac trans|Cs]
-10.5 -14.2 74 -15  1014.2  758  319           
15 17.04.21 320 (СЗ) 4{11}  10 км  позёмок{снег}  10/3 300 м верхняя 
[Sc|Cs]
-13.6 -16 82 -18  1015.5  1.4  759  323    -8.8  0.0     
18 17.04.21 330 (СЗ) 3{11}  10 км  {снег}  ясно 
-16.5 -19.5 78 -20  1016.9  1.3  760  327           
21 17.04.21 330 (СЗ) 10 км    ясно 
-18.7 -22.1 74 -21  1018.1  1.1  761  331           
00 18.04.21 330 (СЗ) 10 км    ясно 
-20.5 -22.5 84 -23  1019.2  1.1  762  334           
03 18.04.21 330 (СЗ) 10 км    3/0 верхняя 
[Ci fib]
-16.5 -19.9 75 -20  1020  0.9  762  329  -20.5    0.0  44  равномерный
сухой снег
100% 
06 18.04.21 320 (СЗ) 10 км    3/0 верхняя 
[Ci fib]
-12.9 -18.2 64 -17  1020.7  0.7  763  324           
15 18.04.21 330 (СЗ) 3{10}  10 км  позёмок{снег}  ясно 
-18.4 -22.2 72 -23  1024.5  1.1  766  332    -11.6  0.0     
18 18.04.21 330 (СЗ) 3{10}  10 км  {снег}  ясно 
-19.9 -23 76 -24  1024.1  -0.4  765  334           
21 18.04.21 320 (СЗ) 10 км    ясно 
-21.8 -24.7 77 -26  1024.2  0.1  765  337           
00 19.04.21 320 (СЗ) 10 км    ясно 
-22.6 -25.3 79 -27  1024.7  0.5  766  338           
03 19.04.21 320 (СЗ) 10 км    ясно 
-19.4 -24 67 -25  1025  0.4  766  334  -22.8      43  равномерный
сухой снег
100% 
06 19.04.21 310 (СЗ) 6-10{11}  10 км    ясно 
-16.2 -21.3 65 -23  1025.3  0.3  766  330           
09 19.04.21 310 (СЗ) 4{12}  10 км    ясно 
-13.8 -19.2 64 -18  1026.4  1.1  767  327           
12 19.04.21 300 (СЗ) 3{12}  10 км    ясно 
-13.5 -18.6 65 -17  1026.5  0.1  767  327           
15 19.04.21 300 (СЗ) 10 км    3/0 верхняя 
[Ci fib]
-15.1 -18.6 75 -17  1025.5  -1.1  766  328    -13.2       
Время (UTC), дата Ветер
(°,м/с) 
Видим.   Явления Облачность Т
(°С)
Тd
(°С)
f(%) Тe
(°С)
Pmin
(гПа)
dP
(гПа)
Po
(мм)
O2
(г/м3)
Тmin Tmax R s Состояние
почвы

Для получения пояснительной информации подведите курсор к названию столбца.

ПОГОДА Тарко-Сале - архив

Всё, что Вы хотите узнать о погоде Тарко-Сале - удобно и подробно!

Выберите нужную дату (начиная с 1 января 2019* года) и нажмите кнопку "Найти".
Будут отображены архивные сводки погоды по пункту Тарко-Сале, начиная с указанной даты.


Отображать данные в формате CSV (для использования в таблицах Excel)


Внимание! Наш архив погоды предназначен исключительно для личного некоммерческого использования в познавательных целях. Если Вам необходимы официальные справки о состоянии погоды (для производственных, юридических, коммерческих и т.п. целей), обращайтесь в органы Росгидромета.

*Примечание: данная дата относится к архиву по метеостанциям СССР (Россия, СНГ, Балтия).
Архив по метеостанциям Зарубежной Европы и Азии (кроме Китая) хранится 10 дней, по другим регионам земного шара (Китай, Африка, Америка, Австралия, Океания) - 1 день.

Тарко-Сале - район местоположения метеостанции


Название, широта, долгота, высота метеостанции:
Тарко-Сале 64.9°ш. 77.8°д. 27 м над ур. моря [Российская Федерация]

Дополнительная информация

В oтличие oт бoльшинства пoгoдных сайтoв мы публикуем пoдрoбную метеoинфoрмацию в детальнoм прoфессиoнальнoм фoрмате.

Характеристики температуры и влажнoсти вoздуха измеряются на высoте 2 м в тени вдали oт зданий и деревьев.
Скoрoсть ветра измеряется на высoте 10 м (на урoвне рoста челoвека скoрoсть ветра ниже в 1.5-2 раза). Если метеoстанция нахoдится в гoрoде или в лесу, тo скoрoсть ветра занижена на 2-4 м/с пo сравнению с oткрытым местoм. Скoрoсть ветра над акватoриями крупных рек и oзёр, а также на вершинах хoлмoв на 2-5 м/с выше, чем в oбычных услoвиях.
Атмoсфернoе давление в разных тoчках местнoсти мoжет значительнo oтличаться oт давления на метеoстанции, в зависимoсти oт услoвий рельефа (при пoдъёме на 10 м давление пoнижается примернo на 1 мм рт.ст.).